,,,PA_Meas_PMT16A,,PR_Meas_QMR101_102,,RH_Meas_QMH101,,SR_Meas_QMS101,,TA_Meas_QMH101,,GenWind,,GenWind,
date,time,status,PA,status,PR,status,RH,status,SR,status,TA,status,DirAvg,status,SpdAvg,
2010-01-02, 00:00:04,VALID,999.613,VALID,0,VALID,92.5931,VALID,0,VALID,24.072,VALID,344,VALID,0.548047,
2010-01-02, 00:01:04,VALID,999.639,VALID,0,VALID,92.5778,VALID,0,VALID,24.072,VALID,344,VALID,0.383203,
2010-01-02, 00:02:04,VALID,999.604,VALID,0,VALID,92.5626,VALID,0,VALID,24.072,VALID,344,VALID,0.216406,
2010-01-02, 00:03:04,VALID,999.613,VALID,0,VALID,92.5549,VALID,0,VALID,24.0525,VALID,344,VALID,0.28125,
2010-01-02, 00:04:04,VALID,999.634,VALID,0,VALID,92.5854,VALID,0,VALID,24.0506,VALID,344,VALID,0.0972656,
2010-01-02, 00:05:04,VALID,999.64,VALID,0,VALID,92.5397,VALID,0,VALID,24.0525,VALID,344,VALID,0,
2010-01-02, 00:06:04,VALID,999.704,VALID,0,VALID,92.5397,VALID,0,VALID,24.0329,VALID,344,VALID,0,
2010-01-02, 00:07:04,VALID,999.691,VALID,0,VALID,92.532,VALID,0,VALID,24.0525,VALID,344,VALID,0,
2010-01-02, 00:08:04,VALID,999.663,VALID,0,VALID,92.5549,VALID,0,VALID,24.0329,VALID,344,VALID,0,
2010-01-02, 00:09:04,VALID,999.662,VALID,0,VALID,92.5549,VALID,0,VALID,24.0134,VALID,344,VALID,0,
2010-01-02, 00:10:04,VALID,999.636,VALID,0,VALID,92.6083,VALID,0,VALID,24.0329,VALID,344,VALID,0,
2010-01-02, 00:11:04,VALID,999.597,VALID,0,VALID,92.6694,VALID,0,VALID,24.0329,VALID,344,VALID,0,
2010-01-02, 00:12:04,VALID,999.599,VALID,0,VALID,92.7075,VALID,0,VALID,24.0329,VALID,22,VALID,0,
2010-01-02, 00:13:04,VALID,999.599,VALID,0,VALID,92.6236,VALID,0,VALID,24.0525,VALID,123,VALID,0,
2010-01-02, 00:14:04,VALID,999.557,VALID,0,VALID,92.5931,VALID,0,VALID,24.0525,VALID,123,VALID,0,
2010-01-02, 00:15:04,VALID,999.545,VALID,0,VALID,92.5168,VALID,0,VALID,24.072,VALID,123,VALID,0,
2010-01-02, 00:16:04,VALID,999.493,VALID,0,VALID,92.471,VALID,0,VALID,24.072,VALID,123,VALID,0,
2010-01-02, 00:17:04,VALID,999.507,VALID,0,VALID,92.4176,VALID,0,VALID,24.0915,VALID,123,VALID,0,
2010-01-02, 00:18:04,VALID,999.493,VALID,0,VALID,92.3871,VALID,0,VALID,24.0915,VALID,123,VALID,0,
2010-01-02, 00:19:04,VALID,999.534,VALID,0,VALID,92.3871,VALID,0,VALID,24.0915,VALID,123,VALID,0,
2010-01-02, 00:20:04,VALID,999.523,VALID,0,VALID,92.3947,VALID,0,VALID,24.0915,VALID,123,VALID,0,
2010-01-02, 00:21:04,VALID,999.55,VALID,0,VALID,92.3947,VALID,0,VALID,24.0701,VALID,123,VALID,0,
2010-01-02, 00:22:04,VALID,999.538,VALID,0,VALID,92.3413,VALID,0,VALID,24.0525,VALID,123,VALID,0,
2010-01-02, 00:23:04,VALID,999.53,VALID,0,VALID,92.3642,VALID,0,VALID,24.0329,VALID,123,VALID,0,
2010-01-02, 00:24:04,VALID,999.526,VALID,0,VALID,92.4023,VALID,0,VALID,24.0311,VALID,123,VALID,0,
2010-01-02, 00:25:04,VALID,999.494,VALID,0,VALID,92.471,VALID,0,VALID,24.0116,VALID,123,VALID,0,
2010-01-02, 00:26:04,VALID,999.506,VALID,0,VALID,92.5168,VALID,0,VALID,24.0329,VALID,123,VALID,0,
2010-01-02, 00:27:04,VALID,999.486,VALID,0,VALID,92.5626,VALID,0,VALID,24.0329,VALID,123,VALID,0,
2010-01-02, 00:28:04,VALID,999.489,VALID,0,VALID,92.5473,VALID,0,VALID,24.0329,VALID,123,VALID,0,
2010-01-02, 00:29:04,VALID,999.501,VALID,0,VALID,92.5778,VALID,0,VALID,24.0134,VALID,123,VALID,0,
2010-01-02, 00:30:04,VALID,999.49,VALID,0,VALID,92.5626,VALID,0,VALID,24.0134,VALID,123,VALID,0,
2010-01-02, 00:31:04,VALID,999.47,VALID,0,VALID,92.5626,VALID,0,VALID,23.9726,VALID,123,VALID,0,
2010-01-02, 00:32:04,VALID,999.482,VALID,0,VALID,92.5244,VALID,0,VALID,23.9744,VALID,123,VALID,0,
2010-01-02, 00:33:04,VALID,999.471,VALID,0,VALID,92.616,VALID,0,VALID,23.9726,VALID,123,VALID,0,
2010-01-02, 00:34:04,VALID,999.498,VALID,0,VALID,92.6465,VALID,0,VALID,23.9744,VALID,123,VALID,0,
2010-01-02, 00:35:04,VALID,999.494,VALID,0,VALID,92.6999,VALID,0,VALID,23.9531,VALID,123,VALID,0,
2010-01-02, 00:36:04,VALID,999.445,VALID,0,VALID,92.7457,VALID,0,VALID,23.9531,VALID,121,VALID,0,
2010-01-02, 00:37:04,VALID,999.422,VALID,0,VALID,92.8067,VALID,0,VALID,23.9744,VALID,121,VALID,0,
2010-01-02, 00:38:04,VALID,999.394,VALID,0,VALID,92.8448,VALID,0,VALID,23.9939,VALID,119,VALID,0,
2010-01-02, 00:39:04,VALID,999.371,VALID,0,VALID,92.8677,VALID,0,VALID,24.0329,VALID,115,VALID,0.974609,
2010-01-02, 00:40:04,VALID,999.379,VALID,0,VALID,92.8754,VALID,0,VALID,24.0525,VALID,109,VALID,0.890234,
2010-01-02, 00:41:04,VALID,999.375,VALID,0,VALID,92.8448,VALID,0,VALID,24.0915,VALID,106,VALID,0.704687,
2010-01-02, 00:42:04,VALID,999.361,VALID,0,VALID,92.738,VALID,0,VALID,24.111,VALID,106,VALID,0.576953,
2010-01-02, 00:43:04,VALID,999.353,VALID,0,VALID,92.6617,VALID,0,VALID,24.111,VALID,105,VALID,0.576172,
2010-01-02, 00:44:04,VALID,999.364,VALID,0,VALID,92.6083,VALID,0,VALID,24.111,VALID,105,VALID,0.685156,
2010-01-02, 00:45:04,VALID,999.382,VALID,0,VALID,92.5549,VALID,0,VALID,24.1305,VALID,99,VALID,0.515234,
2010-01-02, 00:46:04,VALID,999.379,VALID,0,VALID,92.5244,VALID,0,VALID,24.1305,VALID,76,VALID,0.53125,
2010-01-02, 00:47:04,VALID,999.35,VALID,0,VALID,92.4328,VALID,0,VALID,24.111,VALID,70,VALID,0.470313,
2010-01-02, 00:48:04,VALID,999.321,VALID,0,VALID,92.3566,VALID,0,VALID,24.111,VALID,56,VALID,0.724609,
2010-01-02, 00:49:04,VALID,999.319,VALID,0,VALID,92.2879,VALID,0,VALID,24.0701,VALID,56,VALID,0.433594,
2010-01-02, 00:50:04,VALID,999.294,VALID,0,VALID,92.2803,VALID,0,VALID,24.0506,VALID,55,VALID,0.328906,
2010-01-02, 00:51:05,VALID,999.278,VALID,0,VALID,92.2574,VALID,0,VALID,24.0525,VALID,55,VALID,0.305078,
2010-01-02, 00:52:05,VALID,999.265,VALID,0,VALID,92.2345,VALID,0.112286,VALID,24.0329,VALID,55,VALID,0.084375,
2010-01-02, 00:53:05,VALID,999.281,VALID,0,VALID,92.2497,VALID,0,VALID,24.0134,VALID,54,VALID,0.0367187,
2010-01-02, 00:54:05,VALID,999.239,VALID,0,VALID,92.2421,VALID,0,VALID,23.9939,VALID,50,VALID,0,
2010-01-02, 00:55:05,VALID,999.191,VALID,0,VALID,92.2955,VALID,0,VALID,23.9531,VALID,50,VALID,0,
2010-01-02, 00:56:05,VALID,999.148,VALID,0,VALID,92.3031,VALID,0,VALID,23.9531,VALID,49,VALID,0,
2010-01-02, 00:57:05,VALID,999.138,VALID,0,VALID,92.3337,VALID,0,VALID,23.9354,VALID,49,VALID,0,
2010-01-02, 00:58:05,VALID,999.11,VALID,0,VALID,92.3489,VALID,0,VALID,23.9354,VALID,49,VALID,0,
2010-01-02, 00:59:05,VALID,999.118,VALID,0,VALID,92.3413,VALID,0,VALID,23.875,VALID,47,VALID,0,
2010-01-02, 01:00:05,VALID,999.072,VALID,0,VALID,92.3489,VALID,0,VALID,23.8768,VALID,34,VALID,0,
2010-01-02, 01:01:05,VALID,999.06,VALID,0,VALID,92.3794,VALID,0,VALID,23.8378,VALID,34,VALID,0,
2010-01-02, 01:02:05,VALID,999.052,VALID,0,VALID,92.4863,VALID,0,VALID,23.836,VALID,34,VALID,0,
2010-01-02, 01:03:05,VALID,999.029,VALID,0,VALID,92.5778,VALID,0.112286,VALID,23.8378,VALID,34,VALID,0,
2010-01-02, 01:04:05,VALID,999.015,VALID,0,VALID,92.5931,VALID,0,VALID,23.797,VALID,34,VALID,0,
2010-01-02, 01:05:05,VALID,999.005,VALID,0,VALID,92.6083,VALID,0,VALID,23.7775,VALID,34,VALID,0,
2010-01-02, 01:06:05,VALID,998.976,VALID,0,VALID,92.6007,VALID,0,VALID,23.7793,VALID,34,VALID,0,
2010-01-02, 01:07:05,VALID,998.973,VALID,0,VALID,92.6007,VALID,0,VALID,23.7597,VALID,34,VALID,0,
2010-01-02, 01:08:05,VALID,998.949,VALID,0,VALID,92.6617,VALID,0,VALID,23.7189,VALID,34,VALID,0,
2010-01-02, 01:09:05,VALID,998.936,VALID,0,VALID,92.7304,VALID,0,VALID,23.7597,VALID,34,VALID,0,
2010-01-02, 01:10:05,VALID,998.938,VALID,0,VALID,92.7075,VALID,0,VALID,23.7402,VALID,34,VALID,0,
2010-01-02, 01:11:05,VALID,998.902,VALID,0,VALID,92.738,VALID,0,VALID,23.7207,VALID,34,VALID,0,
2010-01-02, 01:12:05,VALID,998.905,VALID,0,VALID,92.8143,VALID,0,VALID,23.6994,VALID,34,VALID,0,
2010-01-02, 01:13:05,VALID,998.907,VALID,0,VALID,92.7991,VALID,0,VALID,23.7012,VALID,34,VALID,0,
2010-01-02, 01:14:05,VALID,998.886,VALID,0,VALID,92.8601,VALID,0,VALID,23.6817,VALID,34,VALID,0,
2010-01-02, 01:15:05,VALID,998.882,VALID,0,VALID,92.9059,VALID,0,VALID,23.6622,VALID,34,VALID,0,
2010-01-02, 01:16:05,VALID,998.878,VALID,0,VALID,92.883,VALID,0,VALID,23.6604,VALID,34,VALID,0,
2010-01-02, 01:17:05,VALID,998.906,VALID,0,VALID,92.9745,VALID,0,VALID,23.6622,VALID,34,VALID,0,
2010-01-02, 01:18:05,VALID,998.848,VALID,0,VALID,93.0661,VALID,0,VALID,23.7012,VALID,34,VALID,0,
2010-01-02, 01:19:05,VALID,998.841,VALID,0,VALID,93.089,VALID,0,VALID,23.6994,VALID,34,VALID,0,
2010-01-02, 01:20:05,VALID,998.824,VALID,0,VALID,93.1119,VALID,0,VALID,23.7189,VALID,34,VALID,0,
2010-01-02, 01:21:05,VALID,998.796,VALID,0,VALID,93.1043,VALID,0,VALID,23.7207,VALID,34,VALID,0,
2010-01-02, 01:22:05,VALID,998.786,VALID,0,VALID,93.1119,VALID,0,VALID,23.7207,VALID,34,VALID,0,
2010-01-02, 01:23:05,VALID,998.773,VALID,0,VALID,93.0966,VALID,0,VALID,23.7012,VALID,34,VALID,0,
2010-01-02, 01:24:05,VALID,998.768,VALID,0,VALID,93.0661,VALID,0,VALID,23.6817,VALID,34,VALID,0,
2010-01-02, 01:25:05,VALID,998.758,VALID,0,VALID,93.0585,VALID,0,VALID,23.6622,VALID,34,VALID,0,
2010-01-02, 01:26:05,VALID,998.73,VALID,0,VALID,93.0814,VALID,0,VALID,23.6622,VALID,34,VALID,0,
2010-01-02, 01:27:05,VALID,998.741,VALID,0,VALID,93.1195,VALID,0,VALID,23.6817,VALID,34,VALID,0,
2010-01-02, 01:28:05,VALID,998.721,VALID,0,VALID,93.2034,VALID,0,VALID,23.7207,VALID,34,VALID,0,
2010-01-02, 01:29:05,VALID,998.712,VALID,0,VALID,93.2187,VALID,0,VALID,23.7402,VALID,34,VALID,0,
2010-01-02, 01:30:05,VALID,998.724,VALID,0,VALID,93.234,VALID,0,VALID,23.7402,VALID,34,VALID,0,
2010-01-02, 01:31:05,VALID,998.714,VALID,0,VALID,93.2416,VALID,0,VALID,23.7597,VALID,4,VALID,0,
2010-01-02, 01:32:05,VALID,998.753,VALID,0,VALID,93.2034,VALID,0,VALID,23.7597,VALID,319,VALID,0,
2010-01-02, 01:33:05,VALID,998.73,VALID,0,VALID,93.2034,VALID,0,VALID,23.7597,VALID,300,VALID,0,
2010-01-02, 01:34:05,VALID,998.706,VALID,0,VALID,93.1958,VALID,0,VALID,23.7597,VALID,298,VALID,0,
2010-01-02, 01:35:05,VALID,998.744,VALID,0,VALID,93.1958,VALID,0,VALID,23.7793,VALID,288,VALID,0,
2010-01-02, 01:36:05,VALID,998.724,VALID,0,VALID,93.1729,VALID,0,VALID,23.7793,VALID,285,VALID,0,
2010-01-02, 01:37:05,VALID,998.704,VALID,0,VALID,93.1805,VALID,0,VALID,23.7988,VALID,285,VALID,0,
2010-01-02, 01:38:05,VALID,998.74,VALID,0,VALID,93.1424,VALID,0,VALID,23.7793,VALID,285,VALID,0,
2010-01-02, 01:39:05,VALID,998.722,VALID,0,VALID,93.1195,VALID,0,VALID,23.7793,VALID,285,VALID,0,
2010-01-02, 01:40:05,VALID,998.739,VALID,0,VALID,93.1195,VALID,0.112286,VALID,23.7793,VALID,285,VALID,0,
2010-01-02, 01:41:05,VALID,998.746,VALID,0,VALID,93.089,VALID,0,VALID,23.7793,VALID,285,VALID,0,
2010-01-02, 01:42:05,VALID,998.74,VALID,0,VALID,92.8296,VALID,0,VALID,23.7012,VALID,320,VALID,0,
2010-01-02, 01:43:05,VALID,998.712,VALID,0,VALID,92.8677,VALID,0,VALID,23.6604,VALID,334,VALID,0,
2010-01-02, 01:44:05,VALID,998.758,VALID,0,VALID,92.7457,VALID,0,VALID,23.6232,VALID,342,VALID,0,
2010-01-02, 01:45:05,VALID,998.764,VALID,0,VALID,92.738,VALID,0,VALID,23.5841,VALID,342,VALID,0,
2010-01-02, 01:46:05,VALID,998.751,VALID,0,VALID,92.7075,VALID,0,VALID,23.5238,VALID,342,VALID,0,
2010-01-02, 01:47:05,VALID,998.741,VALID,0,VALID,92.6923,VALID,0.112286,VALID,23.4848,VALID,342,VALID,0,
2010-01-02, 01:48:05,VALID,998.752,VALID,0,VALID,92.7228,VALID,0,VALID,23.4263,VALID,342,VALID,0,
2010-01-02, 01:49:05,VALID,998.78,VALID,0,VALID,92.7304,VALID,0,VALID,23.428,VALID,342,VALID,0,
2010-01-02, 01:50:05,VALID,998.768,VALID,0,VALID,92.9211,VALID,0,VALID,23.428,VALID,342,VALID,0,
2010-01-02, 01:51:05,VALID,998.773,VALID,0,VALID,93.028,VALID,0,VALID,23.428,VALID,342,VALID,0,
2010-01-02, 01:52:05,VALID,998.738,VALID,0,VALID,93.0661,VALID,0,VALID,23.428,VALID,342,VALID,0,
2010-01-02, 01:53:05,VALID,998.761,VALID,0,VALID,93.1348,VALID,0,VALID,23.4671,VALID,342,VALID,0,
2010-01-02, 01:54:05,VALID,998.762,VALID,0,VALID,93.234,VALID,0,VALID,23.4866,VALID,342,VALID,0,
2010-01-02, 01:55:05,VALID,998.764,VALID,0,VALID,93.2492,VALID,0,VALID,23.5061,VALID,342,VALID,0,
2010-01-02, 01:56:05,VALID,998.762,VALID,0,VALID,93.2645,VALID,0,VALID,23.4866,VALID,342,VALID,0,
2010-01-02, 01:57:05,VALID,998.791,VALID,0,VALID,93.2874,VALID,0,VALID,23.4671,VALID,342,VALID,0,
2010-01-02, 01:58:05,VALID,998.764,VALID,0,VALID,93.3179,VALID,0,VALID,23.5061,VALID,342,VALID,0,
2010-01-02, 01:59:05,VALID,998.752,VALID,0,VALID,93.356,VALID,0,VALID,23.5061,VALID,342,VALID,0,
2010-01-02, 02:00:05,VALID,998.732,VALID,0,VALID,93.3713,VALID,0,VALID,23.4866,VALID,342,VALID,0,
2010-01-02, 02:01:05,VALID,998.691,VALID,0,VALID,93.3331,VALID,0,VALID,23.4866,VALID,342,VALID,0,
2010-01-02, 02:02:05,VALID,998.7,VALID,0,VALID,93.3942,VALID,0,VALID,23.4653,VALID,342,VALID,0,
2010-01-02, 02:03:05,VALID,998.629,VALID,0,VALID,93.4323,VALID,0,VALID,23.5061,VALID,342,VALID,0,
2010-01-02, 02:04:05,VALID,998.652,VALID,0,VALID,93.4476,VALID,0,VALID,23.5256,VALID,342,VALID,0,
2010-01-02, 02:05:05,VALID,998.606,VALID,0,VALID,93.5468,VALID,0,VALID,23.5433,VALID,342,VALID,0,
2010-01-02, 02:06:05,VALID,998.638,VALID,0,VALID,93.5468,VALID,0,VALID,23.5628,VALID,344,VALID,0,
2010-01-02, 02:07:05,VALID,998.591,VALID,0,VALID,93.5697,VALID,0,VALID,23.6232,VALID,349,VALID,0,
2010-01-02, 02:08:05,VALID,998.64,VALID,0,VALID,93.5849,VALID,0,VALID,23.6817,VALID,152,VALID,0,
2010-01-02, 02:09:05,VALID,998.643,VALID,0,VALID,93.4934,VALID,0,VALID,23.7012,VALID,154,VALID,0,
2010-01-02, 02:10:05,VALID,998.675,VALID,0,VALID,93.3331,VALID,0,VALID,23.7012,VALID,145,VALID,0,
2010-01-02, 02:11:05,VALID,998.682,VALID,0,VALID,93.1424,VALID,0,VALID,23.7012,VALID,144,VALID,0,
2010-01-02, 02:12:05,VALID,998.672,VALID,0,VALID,92.9059,VALID,0,VALID,23.6817,VALID,144,VALID,0,
2010-01-02, 02:13:05,VALID,998.654,VALID,0,VALID,92.7914,VALID,0,VALID,23.6817,VALID,144,VALID,0,
2010-01-02, 02:14:05,VALID,998.645,VALID,0,VALID,92.6694,VALID,0,VALID,23.6622,VALID,144,VALID,0,
2010-01-02, 02:15:05,VALID,998.65,VALID,0,VALID,92.6541,VALID,0,VALID,23.6604,VALID,144,VALID,0,
2010-01-02, 02:16:05,VALID,998.643,VALID,0,VALID,92.616,VALID,0,VALID,23.6409,VALID,144,VALID,0,
2010-01-02, 02:17:05,VALID,998.664,VALID,0,VALID,92.6312,VALID,0,VALID,23.6427,VALID,144,VALID,0,
2010-01-02, 02:18:05,VALID,998.647,VALID,0,VALID,92.5778,VALID,0,VALID,23.6427,VALID,144,VALID,0,
2010-01-02, 02:19:05,VALID,998.628,VALID,0,VALID,92.532,VALID,0,VALID,23.5823,VALID,98,VALID,0,
2010-01-02, 02:20:05,VALID,998.62,VALID,0,VALID,92.6694,VALID,0,VALID,23.6036,VALID,94,VALID,0,
2010-01-02, 02:21:05,VALID,998.625,VALID,0,VALID,92.7609,VALID,0,VALID,23.6036,VALID,94,VALID,0,
2010-01-02, 02:22:05,VALID,998.62,VALID,0,VALID,92.822,VALID,0,VALID,23.6232,VALID,94,VALID,0,
2010-01-02, 02:23:05,VALID,998.61,VALID,0,VALID,92.883,VALID,0,VALID,23.6036,VALID,94,VALID,0,
2010-01-02, 02:24:05,VALID,998.598,VALID,0,VALID,92.9059,VALID,0,VALID,23.6036,VALID,78,VALID,0,
2010-01-02, 02:25:05,VALID,998.595,VALID,0,VALID,92.9135,VALID,0,VALID,23.6036,VALID,60,VALID,0,
2010-01-02, 02:26:05,VALID,998.644,VALID,0,VALID,92.9211,VALID,0,VALID,23.6036,VALID,31,VALID,0,
2010-01-02, 02:27:05,VALID,998.628,VALID,0,VALID,92.9517,VALID,0,VALID,23.5841,VALID,29,VALID,0,
2010-01-02, 02:28:05,VALID,998.616,VALID,0,VALID,92.8601,VALID,0,VALID,23.5238,VALID,25,VALID,0,
2010-01-02, 02:29:05,VALID,998.618,VALID,0,VALID,92.8067,VALID,0,VALID,23.5256,VALID,22,VALID,0,
2010-01-02, 02:30:05,VALID,998.603,VALID,0,VALID,92.822,VALID,0,VALID,23.5061,VALID,25,VALID,0,
2010-01-02, 02:31:05,VALID,998.616,VALID,0,VALID,92.822,VALID,0,VALID,23.4653,VALID,33,VALID,0,
2010-01-02, 02:32:05,VALID,998.636,VALID,0,VALID,92.8448,VALID,0,VALID,23.4475,VALID,33,VALID,0,
2010-01-02, 02:33:05,VALID,998.605,VALID,0,VALID,92.8754,VALID,0,VALID,23.4263,VALID,31,VALID,1.0918,
2010-01-02, 02:34:05,VALID,998.659,VALID,0,VALID,92.8754,VALID,0,VALID,23.4085,VALID,30,VALID,0.883203,
2010-01-02, 02:35:05,VALID,998.652,VALID,0,VALID,92.9135,VALID,0,VALID,23.389,VALID,37,VALID,0.887891,
2010-01-02, 02:36:05,VALID,998.653,VALID,0,VALID,93.0585,VALID,0,VALID,23.4085,VALID,41,VALID,0.912109,
2010-01-02, 02:37:05,VALID,998.674,VALID,0,VALID,93.0661,VALID,0,VALID,23.428,VALID,44,VALID,0.902734,
2010-01-02, 02:38:05,VALID,998.677,VALID,0,VALID,93.15,VALID,0,VALID,23.4475,VALID,44,VALID,0.952734,
2010-01-02, 02:39:05,VALID,998.709,VALID,0,VALID,93.2111,VALID,0,VALID,23.4263,VALID,44,VALID,0.717578,
2010-01-02, 02:40:05,VALID,998.749,VALID,0,VALID,93.2187,VALID,0,VALID,23.4263,VALID,45,VALID,0.647266,
2010-01-02, 02:41:05,VALID,998.726,VALID,0,VALID,93.2645,VALID,0,VALID,23.4671,VALID,48,VALID,0.764453,
2010-01-02, 02:42:05,VALID,998.754,VALID,0,VALID,93.2568,VALID,0,VALID,23.4866,VALID,49,VALID,0.833594,
2010-01-02, 02:43:05,VALID,998.751,VALID,0,VALID,93.2416,VALID,0,VALID,23.4866,VALID,49,VALID,0.569922,
2010-01-02, 02:44:05,VALID,998.727,VALID,0,VALID,93.2111,VALID,0,VALID,23.4866,VALID,49,VALID,0.269141,
2010-01-02, 02:45:05,VALID,998.726,VALID,0,VALID,93.1729,VALID,0,VALID,23.4671,VALID,49,VALID,0,
2010-01-02, 02:46:05,VALID,998.678,VALID,0,VALID,93.1729,VALID,0,VALID,23.4475,VALID,49,VALID,0,
2010-01-02, 02:47:05,VALID,998.687,VALID,0,VALID,93.15,VALID,0,VALID,23.4475,VALID,49,VALID,0,
2010-01-02, 02:48:05,VALID,998.669,VALID,0,VALID,93.1729,VALID,0,VALID,23.4263,VALID,49,VALID,0,
2010-01-02, 02:49:05,VALID,998.661,VALID,0,VALID,93.1958,VALID,0,VALID,23.4475,VALID,49,VALID,0,
2010-01-02, 02:50:05,VALID,998.626,VALID,0,VALID,93.1882,VALID,0,VALID,23.4475,VALID,49,VALID,0,
2010-01-02, 02:51:05,VALID,998.613,VALID,0,VALID,93.2187,VALID,0,VALID,23.4475,VALID,49,VALID,0,
2010-01-02, 02:52:05,VALID,998.611,VALID,0,VALID,93.2263,VALID,0,VALID,23.4866,VALID,49,VALID,0,
2010-01-02, 02:53:05,VALID,998.646,VALID,0,VALID,93.2416,VALID,0,VALID,23.4866,VALID,49,VALID,0,
2010-01-02, 02:54:05,VALID,998.649,VALID,0,VALID,93.2416,VALID,0,VALID,23.4671,VALID,49,VALID,0,
2010-01-02, 02:55:05,VALID,998.623,VALID,0,VALID,93.2492,VALID,0,VALID,23.4671,VALID,49,VALID,0,
2010-01-02, 02:56:05,VALID,998.648,VALID,0,VALID,93.2416,VALID,0,VALID,23.4671,VALID,49,VALID,0,
2010-01-02, 02:57:05,VALID,998.673,VALID,0,VALID,93.2797,VALID,0,VALID,23.4671,VALID,49,VALID,0,
2010-01-02, 02:58:05,VALID,998.682,VALID,0,VALID,93.2645,VALID,0,VALID,23.4458,VALID,49,VALID,0,
2010-01-02, 02:59:05,VALID,998.714,VALID,0,VALID,93.295,VALID,0,VALID,23.4458,VALID,49,VALID,0,
2010-01-02, 03:00:05,VALID,998.727,VALID,0,VALID,93.3408,VALID,0,VALID,23.4671,VALID,49,VALID,0,
2010-01-02, 03:01:05,VALID,998.754,VALID,0,VALID,93.3408,VALID,0,VALID,23.4866,VALID,49,VALID,0,
2010-01-02, 03:02:05,VALID,998.726,VALID,0,VALID,93.3331,VALID,0,VALID,23.5061,VALID,51,VALID,0.624609,
2010-01-02, 03:03:05,VALID,998.762,VALID,0,VALID,93.3026,VALID,0,VALID,23.4866,VALID,67,VALID,0.359766,
2010-01-02, 03:04:05,VALID,998.754,VALID,0,VALID,93.3255,VALID,0,VALID,23.4866,VALID,67,VALID,0.266797,
2010-01-02, 03:05:05,VALID,998.75,VALID,0,VALID,93.3484,VALID,0,VALID,23.4848,VALID,67,VALID,0.0195313,
2010-01-02, 03:06:05,VALID,998.741,VALID,0,VALID,93.3331,VALID,0,VALID,23.5043,VALID,67,VALID,0,
2010-01-02, 03:07:05,VALID,998.73,VALID,0,VALID,93.356,VALID,0,VALID,23.5238,VALID,67,VALID,0,
2010-01-02, 03:08:05,VALID,998.704,VALID,0,VALID,93.3637,VALID,0,VALID,23.5433,VALID,67,VALID,0.263281,
2010-01-02, 03:09:05,VALID,998.681,VALID,0,VALID,93.3484,VALID,0,VALID,23.5646,VALID,67,VALID,0.0398437,
2010-01-02, 03:10:05,VALID,998.682,VALID,0,VALID,93.3484,VALID,0,VALID,23.5628,VALID,67,VALID,0,
2010-01-02, 03:11:05,VALID,998.69,VALID,0,VALID,93.3789,VALID,0,VALID,23.6232,VALID,67,VALID,0.439844,
2010-01-02, 03:12:05,VALID,998.67,VALID,0,VALID,93.3866,VALID,0,VALID,23.6427,VALID,67,VALID,0.197656,
2010-01-02, 03:13:05,VALID,998.691,VALID,0,VALID,93.356,VALID,0,VALID,23.6622,VALID,67,VALID,0,
2010-01-02, 03:14:05,VALID,998.705,VALID,0,VALID,93.3179,VALID,0,VALID,23.6622,VALID,67,VALID,0,
2010-01-02, 03:15:05,VALID,998.728,VALID,0,VALID,93.3331,VALID,0,VALID,23.6817,VALID,45,VALID,0,
2010-01-02, 03:16:05,VALID,998.724,VALID,0,VALID,93.295,VALID,0,VALID,23.6799,VALID,26,VALID,0.574609,
2010-01-02, 03:17:05,VALID,998.743,VALID,0,VALID,93.295,VALID,0,VALID,23.7207,VALID,21,VALID,0.391797,
2010-01-02, 03:18:05,VALID,998.764,VALID,0,VALID,93.2645,VALID,0,VALID,23.7207,VALID,21,VALID,0.390625,
2010-01-02, 03:19:05,VALID,998.725,VALID,0,VALID,93.2645,VALID,0,VALID,23.7207,VALID,21,VALID,0.383203,
2010-01-02, 03:20:05,VALID,998.73,VALID,0,VALID,93.295,VALID,0,VALID,23.7402,VALID,21,VALID,0.356641,
2010-01-02, 03:21:05,VALID,998.73,VALID,0,VALID,93.295,VALID,0,VALID,23.7597,VALID,21,VALID,0.354297,
2010-01-02, 03:22:05,VALID,998.724,VALID,0,VALID,93.3103,VALID,0,VALID,23.7579,VALID,7,VALID,0,
2010-01-02, 03:23:05,VALID,998.706,VALID,0,VALID,93.3026,VALID,0,VALID,23.7988,VALID,6,VALID,0,
2010-01-02, 03:24:05,VALID,998.728,VALID,0,VALID,93.295,VALID,0,VALID,23.7988,VALID,6,VALID,0,
2010-01-02, 03:25:05,VALID,998.71,VALID,0,VALID,93.2874,VALID,0,VALID,23.7793,VALID,6,VALID,0,
2010-01-02, 03:26:05,VALID,998.716,VALID,0,VALID,93.2568,VALID,0,VALID,23.7579,VALID,6,VALID,0,
2010-01-02, 03:27:05,VALID,998.721,VALID,0,VALID,93.2492,VALID,0,VALID,23.7793,VALID,6,VALID,0,
2010-01-02, 03:28:05,VALID,998.733,VALID,0,VALID,93.2111,VALID,0,VALID,23.7597,VALID,6,VALID,0,
2010-01-02, 03:29:05,VALID,998.747,VALID,0,VALID,93.1882,VALID,0,VALID,23.7597,VALID,6,VALID,0,
2010-01-02, 03:30:05,VALID,998.751,VALID,0,VALID,93.1958,VALID,0,VALID,23.7189,VALID,6,VALID,0,
2010-01-02, 03:31:05,VALID,998.77,VALID,0,VALID,93.1882,VALID,0,VALID,23.7189,VALID,6,VALID,0,
2010-01-02, 03:32:05,VALID,998.77,VALID,0,VALID,93.1958,VALID,0,VALID,23.7207,VALID,6,VALID,0,
2010-01-02, 03:33:05,VALID,998.747,VALID,0,VALID,93.1958,VALID,0,VALID,23.7012,VALID,6,VALID,0,
2010-01-02, 03:34:05,VALID,998.735,VALID,0,VALID,93.2111,VALID,0,VALID,23.7012,VALID,6,VALID,0,
2010-01-02, 03:35:05,VALID,998.739,VALID,0,VALID,93.2568,VALID,0,VALID,23.7402,VALID,6,VALID,0,
2010-01-02, 03:36:05,VALID,998.748,VALID,0,VALID,93.2721,VALID,0,VALID,23.7402,VALID,6,VALID,0,
2010-01-02, 03:37:04,VALID,998.744,VALID,0,VALID,93.2874,VALID,0,VALID,23.7402,VALID,6,VALID,0,
2010-01-02, 03:38:04,VALID,998.73,VALID,0,VALID,93.3103,VALID,0,VALID,23.7402,VALID,6,VALID,0,
2010-01-02, 03:39:04,VALID,998.714,VALID,0,VALID,93.3255,VALID,0,VALID,23.7402,VALID,6,VALID,0,
2010-01-02, 03:40:04,VALID,998.735,VALID,0,VALID,93.3331,VALID,0,VALID,23.7189,VALID,6,VALID,0,
2010-01-02, 03:41:04,VALID,998.759,VALID,0,VALID,93.3408,VALID,0,VALID,23.7402,VALID,6,VALID,0,
2010-01-02, 03:42:04,VALID,998.761,VALID,0,VALID,93.3866,VALID,0,VALID,23.7402,VALID,6,VALID,0,
2010-01-02, 03:43:04,VALID,998.802,VALID,0,VALID,93.3713,VALID,0,VALID,23.7189,VALID,6,VALID,0,
2010-01-02, 03:44:04,VALID,998.834,VALID,0,VALID,93.3484,VALID,0,VALID,23.7012,VALID,6,VALID,0,
2010-01-02, 03:45:04,VALID,998.831,VALID,0,VALID,93.3255,VALID,0,VALID,23.6817,VALID,6,VALID,0,
2010-01-02, 03:46:04,VALID,998.82,VALID,0,VALID,93.3637,VALID,0,VALID,23.6622,VALID,6,VALID,0,
2010-01-02, 03:47:04,VALID,998.811,VALID,0,VALID,93.3866,VALID,0,VALID,23.6622,VALID,6,VALID,0,
2010-01-02, 03:48:04,VALID,998.798,VALID,0,VALID,93.4171,VALID,0,VALID,23.7012,VALID,6,VALID,0,
2010-01-02, 03:49:04,VALID,998.813,VALID,0,VALID,93.3942,VALID,0,VALID,23.6622,VALID,9,VALID,0,
2010-01-02, 03:50:04,VALID,998.814,VALID,0,VALID,93.3942,VALID,0,VALID,23.6622,VALID,23,VALID,0,
2010-01-02, 03:51:04,VALID,998.806,VALID,0,VALID,93.3866,VALID,0,VALID,23.6427,VALID,54,VALID,0.759375,
2010-01-02, 03:52:04,VALID,998.791,VALID,0,VALID,93.4781,VALID,0,VALID,23.6214,VALID,59,VALID,0.474219,
2010-01-02, 03:53:04,VALID,998.787,VALID,0,VALID,93.4934,VALID,0,VALID,23.6817,VALID,70,VALID,0.355469,
2010-01-02, 03:54:04,VALID,998.761,VALID,0,VALID,93.4552,VALID,0,VALID,23.6604,VALID,70,VALID,0.241797,
2010-01-02, 03:55:04,VALID,998.775,VALID,0,VALID,93.3866,VALID,0,VALID,23.6427,VALID,70,VALID,0.163672,
2010-01-02, 03:56:04,VALID,998.767,VALID,0,VALID,93.4323,VALID,0,VALID,23.6427,VALID,53,VALID,0.701563,
2010-01-02, 03:57:04,VALID,998.745,VALID,0,VALID,93.4247,VALID,0,VALID,23.6232,VALID,51,VALID,0.804688,